Location: Oshawa
(43.9000°N, 78.8670°W)
Time: 03:02:24
(UTC-04:00)

S-56A Canister/Altair - All Passes

Search period start: 03 September 2014 00:00
Search period end: 13 September 2014 00:00
Orbit: 633 x 2503 km, 38.9° (Epoch: 02 September)

Date Brightness Start Highest point End Pass type
(mag) Time Alt. Az. Time Alt. Az. Time Alt. Az.
03 Sep - 11:59:33 10° SSW 12:06:32 36° SE 12:16:29 10° E daylight
03 Sep - 14:01:35 10° WSW 14:10:41 65° SSE 14:24:01 10° E daylight
03 Sep - 16:05:19 10° W 16:16:22 67° S 16:31:02 10° ESE daylight
03 Sep - 18:10:08 10° W 18:22:10 46° SSW 18:36:04 10° SE daylight
03 Sep - 20:17:48 10° W 20:26:53 20° SW 20:36:12 10° S visible
04 Sep - 11:27:58 10° SSW 11:34:18 31° SE 11:43:08 10° E daylight
04 Sep - 13:29:35 10° WSW 13:38:04 62° SSE 13:50:43 10° E daylight
04 Sep - 15:33:04 10° W 15:43:29 68° S 15:57:52 10° ESE daylight
04 Sep - 17:37:35 10° W 17:49:16 48° SSW 18:03:20 10° SE daylight
04 Sep - 19:44:29 10° W 19:54:10 23° SW 20:04:24 10° S daylight
05 Sep - 10:56:30 10° SSW 11:02:08 26° SE 11:09:47 10° E daylight
05 Sep - 12:57:39 10° WSW 13:05:33 59° SSE 13:17:26 10° E daylight
05 Sep - 15:00:53 10° W 15:10:41 68° S 15:24:39 10° ESE daylight
05 Sep - 17:05:08 10° W 17:16:23 51° SSW 17:30:29 10° SE daylight
05 Sep - 19:11:24 10° W 19:21:26 25° SW 19:32:22 10° S daylight
06 Sep - 10:25:11 10° S 10:30:03 21° SE 10:36:24 10° E daylight
06 Sep - 12:25:47 10° SW 12:33:06 54° SSE 12:44:11 10° E daylight
06 Sep - 14:28:47 10° W 14:37:57 68° S 14:51:24 10° ESE daylight
06 Sep - 16:32:47 10° W 16:43:31 53° SSW 16:57:33 10° SE daylight
06 Sep - 18:38:30 10° W 18:48:41 28° SW 19:00:10 10° S daylight
07 Sep - 09:54:03 10° S 09:58:02 17° SE 10:02:55 10° E daylight
07 Sep - 11:53:59 10° SW 12:00:45 50° SSE 12:10:57 10° E daylight
07 Sep - 13:56:44 10° W 14:05:18 68° S 14:18:08 10° E daylight
07 Sep - 16:00:30 10° W 16:10:42 55° SSW 16:24:33 10° SE daylight
07 Sep - 18:05:46 10° W 18:15:55 30° SW 18:27:47 10° SSE daylight
08 Sep - 09:23:19 10° SSE 09:26:03 13° SE 09:29:10 10° ESE daylight
08 Sep - 11:22:14 10° SW 11:28:30 44° SSE 11:37:47 10° E daylight
08 Sep - 13:24:44 10° WSW 13:32:43 67° S 13:44:53 10° E daylight
08 Sep - 15:28:17 10° W 15:37:56 57° SSW 15:51:28 10° SE daylight
08 Sep - 17:33:09 10° W 17:43:09 32° SW 17:55:17 10° SSE daylight
09 Sep - 10:50:33 10° SW 10:56:18 39° SSE 11:04:39 10° E daylight
09 Sep - 12:52:47 10° WSW 13:00:13 65° S 13:11:38 10° E daylight
09 Sep - 14:56:09 10° W 15:05:14 58° SSW 15:18:21 10° ESE daylight
09 Sep - 17:00:40 10° W 17:10:24 34° SSW 17:22:40 10° SSE daylight
09 Sep - 19:10:49 10° WSW 19:14:54 12° SW 19:19:10 10° SSW daylight
10 Sep - 10:18:56 10° SSW 10:24:11 34° SSE 10:31:34 10° E daylight
10 Sep - 12:20:53 10° WSW 12:27:48 63° S 12:38:27 10° E daylight
10 Sep - 14:24:05 10° W 14:32:36 59° SSW 14:45:11 10° ESE daylight
10 Sep - 16:28:17 10° W 16:37:41 36° SSW 16:49:56 10° SSE daylight
10 Sep - 18:36:47 10° WSW 18:42:17 14° SW 18:48:15 10° SSW daylight
11 Sep - 09:47:23 10° SSW 09:52:07 28° SE 09:58:32 10° E daylight
11 Sep - 11:49:02 10° WSW 11:55:27 60° S 12:05:18 10° E daylight
11 Sep - 13:52:03 10° W 14:00:01 60° S 14:12:01 10° ESE daylight
11 Sep - 15:56:00 10° W 16:05:00 38° SSW 16:17:07 10° SSE daylight
11 Sep - 18:03:22 10° WSW 18:09:40 16° SW 18:16:43 10° SSW daylight
12 Sep - 09:15:54 10° SSW 09:20:07 24° SE 09:25:32 10° E daylight
12 Sep - 11:17:12 10° WSW 11:23:11 56° SSE 11:32:14 10° E daylight
12 Sep - 13:20:05 10° W 13:27:31 61° S 13:38:52 10° ESE daylight
12 Sep - 15:23:47 10° W 15:32:22 40° SSW 15:44:15 10° SE daylight
12 Sep - 17:30:19 10° WSW 17:37:04 17° SW 17:44:51 10° S daylight
